Weather History for MMTO - February, 2013

Change the Weather History Date:

Monday, February 25, 2013

  Actual Average Record
Temperature  
Mean Temperature 52 °F -  
Max Temperature 73 °F 70 °F 77 °F (2003)
Min Temperature 32 °F 34 °F 23 °F (2009)
Degree Days  
Heating Degree Days 12    
Growing Degree Days 2 (Base 50)    
Moisture  
Dew Point 22 °F    
Average Humidity 36    
Maximum Humidity 75    
Minimum Humidity 10    
Precipitation  
Precipitation 0.00 in - - ()
Sea Level Pressure  
Sea Level Pressure 30.07 in    
Wind  
Wind Speed 5 mph ()    
Max Wind Speed 21 mph    
Max Gust Speed -    
Visibility 6.2 miles    
Events      
Averages and records for this station are not official NWS values.
T = Trace of Precipitation, MM = Missing Value Source: Averaged Metar Reports

Daily Weather History Graph

Daily Weather History Graph

Search for Another Location

Airport or City:

Trip Planner

Search our weather history database for the weather conditions in past years. The results will help you decide how hot, cold, wet, or windy it might be!

Date:

Astronomy

Feb. 25, 2013 Rise Set
Actual Time 7:00 AM CST 6:42 PM CST
Civil Twilight 6:38 AM CST 7:04 PM CST
Nautical Twilight 6:12 AM CST 7:30 PM CST
Astronomical Twilight 5:47 AM CST 7:55 PM CST
Moon 6:48 PM CST (2/25) 6:36 AM CST (2/25)
Length of Visible Light 12h 26m
Length of Day
11h 42m
Full, 100% of the Moon is Illuminated
Feb 25
Full
Feb 25
Full
Mar 4
Last Quarter
Mar 11
New
Mar 19
First Quarter

Hourly Weather History & Observations

Time (CST) Temp. Windchill Dew Point Humidity Pressure Visibility Wind Dir Wind Speed Gust Speed Precip Events Conditions
12:45 AM 39.2 °F - 23.0 °F 52% 30.26 in 6.0 mi Calm Calm - N/A   Clear
1:45 AM 37.4 °F - 23.0 °F 56% 30.25 in 5.0 mi Calm Calm - N/A   Clear
3:45 AM 35.6 °F 32.8 °F 24.8 °F 65% 30.22 in 5.0 mi NE 3.5 mph - N/A   Clear
4:50 AM 33.8 °F - 26.6 °F 75% 30.21 in 4.0 mi Calm Calm - N/A   Clear
5:45 AM 33.8 °F 30.8 °F 21.2 °F 60% 29.79 in 4.0 mi West 3.5 mph - N/A   Clear
6:45 AM 32.0 °F - 21.2 °F 64% 30.22 in 3.0 mi Calm Calm - N/A   Clear
7:43 AM 33.8 °F 30.8 °F 24.8 °F 70% 30.23 in 6.0 mi SE 3.5 mph - N/A   Clear
8:45 AM 46.4 °F 44.3 °F 26.6 °F 46% 29.80 in 6.0 mi ESE 4.6 mph - N/A   Clear
9:44 AM 57.2 °F - 23.0 °F 27% 30.25 in 7.0 mi Calm Calm - N/A   Partly Cloudy
10:43 AM 64.4 °F - 17.6 °F 16% 30.25 in 7.0 mi SW 3.5 mph - N/A   Partly Cloudy
11:45 AM 69.8 °F - 30.2 °F 23% 29.70 in 7.0 mi West 8.1 mph - N/A   Scattered Clouds
12:53 PM 73.4 °F - 15.8 °F 11% 30.20 in 7.0 mi WSW 17.3 mph - N/A   Scattered Clouds
1:44 PM 73.4 °F - 14.0 °F 10% 30.17 in 7.0 mi West 18.4 mph - N/A   Mostly Cloudy
2:43 PM 71.6 °F - 15.8 °F 12% 29.67 in 7.0 mi West 20.7 mph - N/A   Mostly Cloudy
3:45 PM 68.0 °F - 15.8 °F 13% 30.17 in 7.0 mi West 16.1 mph - N/A   Mostly Cloudy
4:44 PM 69.8 °F - 15.8 °F 13% 30.16 in 7.0 mi WSW 12.7 mph - N/A   Mostly Cloudy
5:43 PM 69.8 °F - 17.6 °F 14% 29.72 in 7.0 mi West 12.7 mph - N/A   Mostly Cloudy
6:50 PM 64.4 °F - 23.0 °F 21% 30.17 in 7.0 mi WSW 8.1 mph - N/A   Mostly Cloudy
7:45 PM 59.0 °F - 24.8 °F 27% 30.20 in 7.0 mi NW 5.8 mph - N/A   Mostly Cloudy
8:41 PM 55.4 °F - 26.6 °F 33% 29.80 in 7.0 mi North 5.8 mph - N/A   Mostly Cloudy
9:45 PM 51.8 °F - 28.4 °F 41% 30.24 in 7.0 mi NNE 6.9 mph - N/A   Scattered Clouds
10:45 PM 50.0 °F - 28.4 °F 43% 30.24 in 5.0 mi NNW 3.5 mph - N/A   Scattered Clouds
11:45 PM 50.0 °F - 28.4 °F 43% 29.67 in 7.0 mi East 3.5 mph - N/A   Scattered Clouds